Retour au catalogue

FENGYUN 1C DEB

ActifSSO
NORAD 30566·DEBRIS·🇨🇳 China

Lancé May 10, 1999 depuis Taiyuan Satellite Launch Center

Loading…

Prochains Passages (prochaines 24 heures)

TLE

FraisSource: Space-Track

Époque: Sep 14, 2026, 15:48 UTC

1 30566U 99025ALG 26257.65891955  .00001211  00000-0  66212-3 0  9990
2 30566  99.1971 318.6026 0068716 129.2341  23.9746 14.12765723  2768

Suivez FENGYUN 1C DEB en temps réel avec AllMySat

Download on the App Store